Temp
65 65 65 66 70 73 73 72 72 72 71 71 70 70 70 70 71 70 70 70 70 70 70 70 70 70 70 70 70 70 70 69 70 70 70 69 69 69 69 68 68 68
66 65 65 68 72 72 72 72 72 72 70 69 69 69 70 70 71 70 70 69 69 69 70 69 69 69 69 69 68 68 68 69 69 71 70 69 69 69 68 69 67 67
68 69 71 72 71 71 71 71 71 70 70 70 69 69 69 71 71 71 69 68 68 68 68 69 69 68 68 68 68 68 67 68 68 69 69 68 68 68 69 68 67 66
72 72 72 72 71 71 71 70 70 70 70 69 69 70 71 70 70 70 69 70 68 69 69 68 67 68 68 68 68 67 67 67 68 68 68 69 68 68 68 68 67 67
71 71 71 71 71 71 71 71 70 70 69 69 69 70 70 69 69 68 68 67 67 67 67 67 67 66 67 67 67 66 66 67 68 68 68 68 67 68 68 67 66 66
71 72 72 71 70 70 70 70 70 69 69 69 69 69 68 69 68 67 67 67 67 66 66 66 66 66 66 66 65 65 66 66 67 68 68 67 67 68 67 66 65 64
70 70 69 70 70 70 68 67 68 68 69 69 68 65 67 67 67 66 66 66 66 66 66 66 66 66 66 65 65 65 66 66 66 66 66 66 66 66 66 64 62 61
69 69 69 68 68 68 67 67 67 67 68 68 65 65 66 66 66 65 65 66 67 67 67 67 66 66 66 65 65 64 64 65 64 65 65 64 64 63 63 61 60 59
68 68 68 67 66 66 65 65 65 66 67 66 66 65 65 65 65 65 66 67 67 66 66 65 65 64 64 64 64 64 64 63 64 64 63 62 62 62 61 60 59 58
67 67 66 66 65 64 64 65 64 65 67 66 65 65 64 64 66 67 66 65 65 64 64 63 62 62 63 63 63 63 63 63 63 63 62 62 61 61 60 59 58 57
66 66 64 64 63 63 63 64 64 65 65 65 64 64 64 64 65 65 64 64 62 62 61 60 60 61 61 62 63 64 63 62 62 62 62 61 61 61 60 58 57 56
64 64 63 63 62 63 63 64 64 64 64 64 65 64 65 65 64 64 63 62 62 61 60 60 60 59 59 60 62 63 63 62 62 62 61 61 61 60 60 58 57 57
63 63 63 63 63 63 64 65 64 64 64 64 64 65 65 64 64 63 62 61 60 59 59 59 59 58 56 56 58 61 62 62 61 61 61 61 61 61 60 59 58 57
62 62 62 63 64 64 64 64 63 63 63 63 65 65 64 64 63 62 61 61 59 58 58 59 57 55 53 53 55 57 61 61 62 61 61 62 62 62 61 59 59 58
62 62 63 64 64 63 63 62 63 63 63 63 64 64 64 64 64 63 61 60 59 58 59 58 56 53 50 48 50 54 57 62 61 62 61 61 61 62 62 61 60 59
62 62 64 64 63 62 62 62 63 63 64 64 64 64 63 63 63 62 61 60 58 58 58 56 54 51 46 44 44 47 52 61 61 61 62 62 61 61 61 61 60 60
63 63 64 63 62 62 62 63 63 64 64 64 63 62 62 63 63 62 60 59 59 58 57 56 53 47 42 41 42 43 49 58 61 61 61 61 61 60 60 60 60 60
63 64 64 63 63 63 63 63 64 64 64 63 62 61 62 62 61 61 60 59 59 58 56 55 52 43 41 41 42 42 45 58 60 60 58 58 59 58 59 60 60 60
63 64 63 63 63 63 63 64 64 64 63 62 61 62 62 61 61 61 60 60 58 57 55 54 51 42 41 41 42 42 40 53 61 59 57 56 56 56 56 56 58 59
63 63 63 63 63 63 64 64 63 62 62 62 62 61 61 61 61 61 61 60 58 57 56 53 48 42 41 41 42 41 39 49 62 59 57 56 55 54 53 53 54 57
62 62 62 63 63 63 63 64 63 63 63 63 62 62 61 60 60 60 60 60 59 58 57 53 48 41 41 41 41 42 40 50 61 60 58 56 54 53 52 51 52 54
62 62 62 63 63 63 63 63 63 62 62 62 62 61 61 61 60 60 59 59 59 58 56 54 50 41 41 41 42 41 44 61 60 59 57 57 55 53 52 51 51 52
62 62 63 63 63 62 62 61 61 62 62 62 61 61 59 59 58 58 58 57 57 57 55 53 51 44 40 41 42 41 48 62 60 59 58 56 55 54 53 52 51 51
63 63 63 62 62 62 62 62 62 62 62 62 61 60 59 59 59 58 57 56 55 55 55 53 51 46 41 42 42 42 48 61 61 60 57 56 55 55 54 53 53 52
63 63 63 62 62 61 62 62 61 61 62 63 62 61 60 60 60 58 56 56 55 54 53 53 51 48 42 42 42 43 50 60 60 59 56 55 55 54 54 54 53 53
62 62 62 62 61 61 62 62 62 62 62 62 62 63 61 60 58 57 55 54 54 53 52 52 52 49 44 41 43 44 46 58 60 57 55 54 55 55 53 52 52 52
MSLP
1013.79 1014.32 1015.79 1017.08 1016.08 1015.03 1015.08 1015.28 1015.35 1015.55 1015.76 1015.88 1016.03 1016.20 1016.32 1016.28 1016.23 1016.35 1016.32 1016.23 1016.16 1016.08 1015.96 1015.88 1015.88 1015.91 1015.91 1015.91 1015.88 1015.84 1015.84 1015.76 1015.64 1015.47 1015.40 1015.43 1015.52 1015.47 1015.43 1015.32 1015.16 1015.11
1014.23 1014.43 1015.20 1016.47 1015.59 1015.23 1015.28 1015.35 1015.55 1015.64 1015.96 1016.11 1016.28 1016.40 1016.32 1016.35 1016.43 1016.40 1016.35 1016.32 1016.23 1016.20 1016.08 1016.03 1016.03 1016.03 1016.11 1016.11 1016.11 1016.11 1016.03 1015.84 1015.79 1015.40 1015.47 1015.52 1015.47 1015.40 1015.32 1015.11 1015.20 1015.03
1014.20 1014.47 1014.96 1015.35 1015.52 1015.52 1015.59 1015.52 1015.67 1015.88 1016.11 1016.20 1016.32 1016.47 1016.64 1016.47 1016.47 1016.35 1016.32 1016.35 1016.35 1016.32 1016.20 1016.11 1016.16 1016.20 1016.32 1016.35 1016.28 1016.28 1016.20 1016.08 1015.96 1015.67 1015.64 1015.59 1015.52 1015.52 1015.28 1015.16 1015.08 1015.03
1014.11 1014.20 1014.64 1015.16 1015.35 1015.47 1015.59 1015.79 1015.99 1016.16 1016.28 1016.47 1016.59 1016.64 1016.55 1016.59 1016.47 1016.40 1016.43 1016.32 1016.32 1016.23 1016.16 1016.20 1016.35 1016.43 1016.52 1016.47 1016.40 1016.35 1016.28 1016.20 1015.99 1015.84 1015.76 1015.52 1015.47 1015.43 1015.40 1015.23 1015.20 1015.08
1014.35 1014.52 1014.79 1015.08 1015.28 1015.52 1015.72 1015.96 1016.20 1016.32 1016.52 1016.67 1016.76 1016.72 1016.64 1016.64 1016.55 1016.47 1016.43 1016.47 1016.40 1016.43 1016.40 1016.52 1016.55 1016.64 1016.64 1016.64 1016.59 1016.59 1016.43 1016.40 1016.20 1015.99 1015.84 1015.76 1015.67 1015.55 1015.47 1015.40 1015.40 1015.35
1014.43 1014.52 1014.76 1015.11 1015.43 1015.67 1015.99 1016.20 1016.35 1016.52 1016.72 1016.79 1016.79 1016.72 1016.76 1016.67 1016.72 1016.72 1016.67 1016.67 1016.67 1016.72 1016.76 1016.76 1016.76 1016.76 1016.76 1016.84 1016.84 1016.76 1016.59 1016.52 1016.28 1016.16 1016.03 1015.99 1015.91 1015.76 1015.76 1015.79 1015.84 1015.76
1014.59 1014.72 1015.03 1015.32 1015.59 1015.88 1016.16 1016.43 1016.64 1016.64 1016.67 1016.67 1016.88 1017.16 1016.99 1016.99 1016.99 1016.99 1016.96 1016.96 1016.96 1016.91 1016.84 1016.79 1016.76 1016.79 1016.79 1016.88 1016.84 1016.79 1016.67 1016.64 1016.55 1016.47 1016.40 1016.35 1016.28 1016.23 1016.23 1016.28 1016.35 1016.40
1014.76 1014.88 1015.16 1015.52 1015.88 1016.16 1016.40 1016.67 1016.88 1016.88 1016.79 1016.84 1017.20 1017.35 1017.23 1017.20 1017.16 1017.16 1017.11 1016.99 1016.84 1016.76 1016.84 1016.91 1016.91 1016.96 1016.96 1016.99 1016.99 1016.96 1016.91 1016.88 1016.88 1016.76 1016.72 1016.76 1016.67 1016.76 1016.76 1016.84 1016.84 1016.84
1014.88 1015.11 1015.43 1015.79 1016.16 1016.43 1016.67 1016.99 1017.16 1017.20 1017.11 1017.11 1017.28 1017.43 1017.40 1017.28 1017.23 1017.16 1017.08 1016.91 1016.91 1016.99 1017.08 1017.20 1017.28 1017.35 1017.35 1017.23 1017.23 1017.20 1017.16 1017.11 1017.03 1016.99 1017.03 1017.08 1017.03 1017.08 1017.20 1017.28 1017.32 1017.35
1015.32 1015.43 1015.67 1016.08 1016.47 1016.79 1016.99 1017.20 1017.35 1017.35 1017.16 1017.23 1017.40 1017.43 1017.47 1017.40 1017.20 1017.08 1017.16 1017.20 1017.23 1017.35 1017.47 1017.64 1017.79 1017.79 1017.64 1017.55 1017.47 1017.35 1017.32 1017.32 1017.32 1017.28 1017.32 1017.32 1017.32 1017.35 1017.55 1017.59 1017.76 1017.76
1015.59 1015.76 1015.99 1016.40 1016.79 1017.08 1017.28 1017.43 1017.52 1017.35 1017.28 1017.43 1017.52 1017.47 1017.40 1017.35 1017.40 1017.35 1017.43 1017.52 1017.64 1017.79 1017.96 1018.16 1018.28 1018.16 1017.96 1017.72 1017.55 1017.40 1017.47 1017.55 1017.55 1017.52 1017.55 1017.55 1017.55 1017.59 1017.76 1017.96 1018.08 1018.11
1015.84 1016.03 1016.28 1016.64 1016.96 1017.20 1017.32 1017.43 1017.52 1017.52 1017.55 1017.55 1017.52 1017.47 1017.28 1017.32 1017.52 1017.55 1017.64 1017.84 1017.99 1018.20 1018.35 1018.47 1018.47 1018.43 1018.32 1018.11 1017.79 1017.59 1017.64 1017.76 1017.76 1017.72 1017.72 1017.72 1017.72 1017.76 1017.88 1018.11 1018.28 1018.28
1016.08 1016.23 1016.47 1016.76 1016.91 1017.08 1017.20 1017.32 1017.47 1017.59 1017.64 1017.76 1017.59 1017.35 1017.28 1017.40 1017.59 1017.84 1017.99 1018.08 1018.35 1018.55 1018.67 1018.67 1018.64 1018.67 1018.72 1018.59 1018.32 1018.03 1017.84 1017.91 1017.91 1017.88 1017.84 1017.79 1017.79 1017.88 1017.99 1018.16 1018.28 1018.32
1016.23 1016.43 1016.64 1016.72 1016.84 1017.03 1017.20 1017.43 1017.67 1017.84 1017.91 1017.84 1017.59 1017.43 1017.40 1017.55 1017.76 1017.99 1018.23 1018.35 1018.59 1018.79 1018.88 1018.84 1018.91 1019.08 1019.20 1019.11 1018.79 1018.47 1018.08 1018.03 1017.99 1017.96 1017.88 1017.84 1017.79 1017.79 1017.96 1018.20 1018.32 1018.35
1016.28 1016.47 1016.59 1016.67 1016.84 1017.11 1017.40 1017.59 1017.72 1017.84 1017.88 1017.84 1017.72 1017.64 1017.64 1017.76 1017.84 1017.99 1018.20 1018.43 1018.72 1018.91 1018.91 1019.03 1019.23 1019.52 1019.88 1019.88 1019.40 1018.88 1018.47 1018.11 1018.16 1018.08 1017.99 1017.96 1017.88 1017.88 1017.91 1018.03 1018.23 1018.32
1016.28 1016.47 1016.47 1016.59 1016.88 1017.20 1017.52 1017.67 1017.72 1017.72 1017.67 1017.67 1017.72 1017.79 1017.88 1017.91 1017.99 1018.11 1018.23 1018.52 1018.88 1019.03 1019.08 1019.23 1019.52 1019.76 1020.03 1019.84 1019.91 1019.67 1018.91 1018.23 1018.28 1018.28 1018.16 1018.11 1018.08 1018.03 1018.08 1018.16 1018.28 1018.28
1016.16 1016.28 1016.40 1016.67 1016.96 1017.28 1017.47 1017.59 1017.67 1017.64 1017.67 1017.79 1017.96 1017.99 1017.96 1017.96 1017.99 1018.16 1018.47 1018.76 1018.91 1019.08 1019.20 1019.40 1019.76 1020.23 1020.08 1019.64 1019.28 1019.23 1018.96 1018.43 1018.40 1018.52 1018.52 1018.52 1018.47 1018.40 1018.35 1018.35 1018.40 1018.40
1015.99 1016.08 1016.32 1016.64 1016.88 1017.16 1017.35 1017.47 1017.52 1017.55 1017.72 1017.91 1018.11 1018.16 1018.11 1018.03 1018.08 1018.28 1018.59 1018.84 1018.99 1019.20 1019.40 1019.67 1019.99 1020.35 1019.96 1019.55 1019.28 1019.08 1018.91 1018.64 1018.79 1018.96 1019.20 1019.20 1019.20 1019.11 1018.96 1018.67 1018.52 1018.43
1015.84 1015.99 1016.32 1016.67 1016.96 1017.16 1017.28 1017.32 1017.40 1017.64 1017.88 1018.11 1018.20 1018.16 1018.16 1018.28 1018.40 1018.43 1018.59 1018.88 1019.16 1019.40 1019.67 1020.03 1020.32 1020.59 1020.16 1019.67 1019.40 1019.20 1019.08 1018.91 1019.11 1019.40 1019.59 1019.79 1019.79 1019.76 1019.67 1019.47 1019.03 1018.72
1015.91 1016.20 1016.47 1016.79 1016.99 1017.11 1017.16 1017.32 1017.52 1017.84 1018.03 1018.11 1018.16 1018.23 1018.35 1018.47 1018.47 1018.52 1018.64 1018.88 1019.23 1019.52 1019.84 1020.28 1020.72 1020.84 1020.32 1019.88 1019.64 1019.40 1019.28 1019.08 1019.16 1019.52 1019.84 1020.08 1020.28 1020.35 1020.28 1020.16 1019.88 1019.40
1016.20 1016.40 1016.59 1016.79 1016.96 1017.03 1017.11 1017.23 1017.47 1017.64 1017.79 1017.91 1018.03 1018.20 1018.40 1018.64 1018.79 1018.84 1018.84 1018.99 1019.32 1019.55 1019.84 1020.35 1020.99 1020.88 1020.43 1020.20 1019.88 1019.55 1019.40 1019.20 1019.32 1019.55 1019.88 1020.28 1020.55 1020.76 1020.79 1020.67 1020.47 1020.11
1016.40 1016.43 1016.55 1016.76 1016.91 1017.03 1017.16 1017.32 1017.47 1017.67 1017.88 1017.99 1018.16 1018.35 1018.55 1018.79 1018.99 1018.99 1019.11 1019.28 1019.52 1019.72 1019.99 1020.35 1020.88 1020.91 1020.67 1020.35 1020.03 1019.59 1019.28 1019.11 1019.40 1019.67 1019.99 1020.28 1020.59 1020.96 1021.08 1021.03 1020.91 1020.67
1016.52 1016.47 1016.55 1016.67 1016.91 1017.16 1017.35 1017.55 1017.72 1017.91 1018.03 1018.16 1018.40 1018.72 1018.99 1019.23 1019.43 1019.59 1019.72 1019.91 1020.03 1020.11 1020.32 1020.64 1020.96 1021.20 1020.91 1020.52 1020.03 1019.76 1019.23 1019.11 1019.40 1019.79 1020.16 1020.40 1020.64 1020.96 1021.16 1021.23 1021.23 1021.16
1016.55 1016.52 1016.67 1016.88 1017.11 1017.32 1017.47 1017.59 1017.76 1017.91 1018.11 1018.28 1018.59 1018.88 1019.11 1019.32 1019.52 1019.79 1020.11 1020.35 1020.52 1020.67 1020.72 1020.91 1021.23 1021.40 1021.08 1020.59 1020.20 1019.79 1019.40 1019.28 1019.47 1019.84 1020.32 1020.64 1020.88 1020.99 1021.16 1021.28 1021.28 1021.28
1016.52 1016.64 1016.88 1017.11 1017.23 1017.40 1017.47 1017.67 1017.88 1018.03 1018.11 1018.23 1018.52 1018.79 1019.03 1019.28 1019.55 1019.96 1020.40 1020.67 1020.96 1021.11 1021.08 1021.08 1021.35 1021.47 1021.40 1020.99 1020.47 1020.11 1019.79 1019.59 1019.88 1020.16 1020.43 1020.72 1020.99 1021.28 1021.40 1021.47 1021.43 1021.28
1016.67 1016.84 1017.08 1017.28 1017.40 1017.47 1017.59 1017.79 1017.96 1018.08 1018.20 1018.32 1018.52 1018.72 1019.08 1019.52 1019.96 1020.35 1020.67 1021.08 1021.28 1021.43 1021.52 1021.47 1021.47 1021.67 1021.76 1021.32 1020.91 1020.55 1020.23 1019.99 1020.16 1020.43 1020.88 1021.11 1021.23 1021.35 1021.59 1021.72 1021.67 1021.47
Wind_Speed
8 7 5 9 5 3 4 5 4 4 4 3 3 4 3 3 3 1 2 2 3 3 3 4 5 5 5 5 6 6 5 6 5 5 6 5 5 6 7 8 7 5
9 8 7 8 1 4 5 4 2 3 4 4 3 3 3 2 1 1 1 2 2 4 5 4 4 5 6 5 6 6 6 6 7 5 5 7 7 6 7 6 5 4
8 9 7 4 4 5 4 3 4 4 3 2 3 3 1 1 1 0 2 2 2 2 2 2 3 4 5 6 5 5 5 6 7 7 8 7 6 6 7 7 4 5
6 7 7 5 3 4 4 4 3 2 1 2 3 1 2 0 1 1 1 1 1 1 3 4 5 5 5 5 5 5 5 6 6 7 7 6 6 7 7 7 7 6
7 7 6 6 5 4 3 3 3 2 3 3 1 2 1 1 1 2 3 4 4 5 4 6 5 4 5 5 6 5 6 6 6 6 7 6 7 7 7 8 9 8
6 7 6 6 4 4 3 3 2 4 2 3 1 1 1 1 3 3 3 3 5 5 5 4 3 4 5 5 5 4 4 5 6 8 9 8 9 8 8 10 11 11
7 8 8 6 5 4 5 6 2 1 1 3 4 4 3 4 4 5 5 5 5 4 4 3 4 3 3 3 3 5 6 7 8 8 8 8 8 10 10 10 10 10
8 7 7 6 5 5 5 5 2 3 2 4 5 3 2 4 5 3 3 3 3 4 5 6 6 7 6 5 5 6 6 6 6 8 8 9 8 9 10 8 9 10
7 7 7 7 6 4 6 5 3 2 1 2 4 4 4 4 4 4 3 4 6 6 7 7 8 7 6 6 7 7 7 7 6 7 8 8 9 9 10 9 11 11
7 7 8 7 6 5 5 5 4 3 2 4 4 4 5 4 4 5 6 5 6 8 8 8 8 7 7 7 7 6 7 8 8 8 8 8 8 9 9 10 10 10
7 7 8 8 7 4 5 5 3 2 3 5 4 5 5 4 5 4 5 7 7 8 9 9 8 8 7 7 6 6 8 7 7 7 7 8 8 8 9 9 9 9
7 8 9 8 6 5 5 5 4 4 5 4 5 6 4 6 5 5 6 8 9 9 9 8 8 7 8 7 7 7 7 6 7 7 7 7 7 7 7 7 7 8
8 8 7 6 6 5 4 5 6 5 6 5 4 4 5 6 6 8 7 8 9 9 9 9 8 8 8 8 7 7 7 7 6 6 6 4 5 6 7 7 6 5
8 7 6 6 6 5 5 6 6 6 5 4 3 4 6 7 7 8 7 8 9 9 9 8 7 8 9 8 7 7 6 7 6 6 5 5 5 5 6 6 6 5
7 6 6 6 7 7 6 6 6 6 6 5 4 4 6 7 7 8 8 9 9 9 9 6 7 6 5 6 7 7 6 6 6 7 6 5 5 6 6 6 6 4
8 7 8 7 8 7 7 6 6 5 4 5 6 7 7 6 7 8 8 9 9 9 7 6 6 5 9 11 7 4 5 3 5 6 6 6 6 5 6 7 7 5
8 8 8 9 8 7 7 8 7 5 5 7 7 6 6 6 7 9 8 8 8 7 6 6 6 6 14 13 14 12 6 4 6 6 7 8 8 8 7 7 6 6
8 9 9 9 9 8 8 7 6 6 6 7 7 6 5 5 7 8 8 7 7 7 7 7 7 11 15 15 15 15 10 8 8 8 8 8 8 8 8 7 5 5
8 9 9 9 8 8 7 7 7 7 8 7 6 6 6 7 7 6 8 8 7 8 7 8 6 13 15 16 15 13 12 7 9 8 8 9 8 8 8 9 8 6
8 8 9 9 8 8 7 8 8 8 7 6 6 6 7 6 6 6 7 8 7 7 6 7 7 11 15 16 15 14 11 6 9 8 9 10 10 10 8 9 9 8
8 8 9 9 8 7 7 8 8 7 8 6 6 6 6 6 6 6 6 8 8 6 6 6 6 15 15 15 14 13 11 4 8 6 7 8 10 10 10 9 9 8
8 7 8 8 8 7 7 8 6 6 7 6 6 6 7 7 6 6 7 8 8 7 6 7 8 17 15 15 15 14 10 5 6 7 7 7 8 9 10 10 9 9
7 7 8 9 8 8 8 7 7 6 6 5 7 7 7 7 6 7 7 8 8 7 6 7 8 13 15 15 15 15 9 4 7 7 7 7 7 7 8 9 9 9
8 8 8 8 8 8 7 7 6 5 6 5 7 7 7 7 6 7 7 7 8 8 7 7 7 11 16 16 17 17 11 6 6 6 7 7 7 7 6 7 9 15
7 8 8 8 8 7 7 7 6 5 5 5 6 6 7 7 7 7 7 7 7 7 9 8 8 10 15 16 17 17 11 4 7 6 6 6 6 6 6 6 6 9
6 7 8 8 8 7 6 6 5 5 4 5 5 6 7 8 7 7 8 7 7 8 7 7 8 9 12 16 17 18 18 9 6 6 6 6 6 6 6 5 6 6
Wind_Direction
120 109 124 257 292 39 78 75 44 64 53 50 53 47 29 57 43 30 9 340 350 327 348 10 8 359 354 346 347 344 333 322 319 315 307 314 317 320 322 312 304 317
131 138 153 210 220 67 71 62 62 73 84 70 57 36 9 45 59 354 357 21 358 360 1 10 6 3 359 352 347 345 333 329 328 321 332 338 329 321 306 305 321 325
159 157 163 112 85 87 86 79 67 55 69 89 80 51 335 52 335 48 16 35 19 3 351 352 15 19 6 349 344 337 331 330 326 345 340 331 330 328 328 332 351 335
115 105 107 114 110 102 86 89 90 96 83 79 85 159 176 349 254 63 67 47 319 351 23 31 26 22 1 347 347 333 342 337 343 338 331 324 346 349 346 2 356 351
115 109 110 101 91 80 83 107 131 109 86 73 132 221 31 23 348 29 41 24 18 19 25 30 27 14 3 359 359 354 353 349 335 327 326 339 360 4 6 14 9 15
123 116 106 103 95 93 91 87 60 101 131 172 101 35 49 45 33 35 43 26 40 29 27 30 23 21 29 12 4 339 332 340 353 352 345 5 3 11 13 19 13 10
104 95 95 90 86 80 93 75 36 59 106 90 77 33 8 47 56 48 33 35 51 53 45 24 30 33 54 21 347 359 4 9 4 356 1 15 6 15 22 24 17 14
105 101 93 93 85 84 93 89 72 29 26 79 82 80 43 72 71 59 54 65 64 49 45 34 24 20 29 13 9 13 17 26 8 4 16 23 19 26 31 27 21 17
101 104 108 103 101 88 88 91 80 73 73 99 105 105 74 68 78 83 78 39 47 43 40 38 30 24 26 8 26 15 22 27 13 13 28 23 26 34 39 31 28 22
109 108 105 104 96 79 95 109 117 155 153 87 101 94 97 83 65 62 52 51 52 45 43 39 33 29 27 26 27 19 28 30 23 28 31 31 28 40 44 38 32 27
117 109 104 100 92 93 107 124 130 128 85 110 112 114 110 104 75 64 69 60 57 53 51 45 38 32 31 32 28 33 40 35 29 32 36 38 38 39 52 48 40 32
111 103 103 107 121 139 133 128 134 119 103 100 108 101 99 94 92 68 64 67 61 57 53 50 39 30 23 17 20 28 50 39 36 37 38 44 46 49 58 59 47 32
109 103 111 127 130 121 131 125 115 112 110 102 103 104 99 94 86 78 67 66 66 63 57 49 39 30 23 11 4 2 46 41 45 37 46 44 57 66 66 72 61 42
103 115 130 125 122 120 103 100 103 97 93 96 101 85 79 77 79 83 79 73 70 67 59 55 40 32 18 6 359 356 21 55 38 41 40 45 58 67 82 86 68 54
126 127 128 133 126 115 114 112 114 122 126 127 113 84 73 75 78 78 83 81 74 67 64 50 44 36 31 2 347 351 343 54 39 38 34 39 47 55 63 67 67 60
129 139 137 124 112 113 118 120 119 123 121 108 91 79 78 81 86 83 76 76 74 70 65 53 37 30 0 10 16 359 316 41 56 36 27 36 35 45 60 63 56 42
141 133 129 123 118 121 125 124 121 121 109 92 84 82 85 84 82 82 79 75 77 76 64 52 35 15 0 8 6 9 355 351 56 42 32 29 21 25 34 47 55 52
137 135 128 126 129 126 125 126 135 120 98 90 92 92 89 85 80 84 86 79 77 72 57 43 32 8 7 7 9 8 8 38 47 46 37 33 27 21 17 17 35 42
143 127 120 119 120 126 133 130 113 101 93 93 99 100 90 80 79 84 90 88 78 70 60 42 30 8 7 9 8 6 8 40 68 58 48 44 31 24 17 6 2 23
122 120 122 125 131 134 132 117 110 110 116 112 102 90 88 86 80 75 78 82 79 76 70 51 31 3 9 10 9 2 2 11 78 70 64 53 43 32 23 14 4 10
120 128 132 133 131 132 127 122 122 130 127 125 116 99 92 88 75 70 72 79 78 72 75 62 33 13 14 10 8 2 354 31 69 69 74 67 53 43 34 24 12 12
135 140 134 132 133 128 120 110 101 93 92 94 94 87 77 72 66 56 57 62 63 64 62 52 32 16 10 10 7 4 349 95 84 76 68 69 70 59 44 35 26 19
139 145 139 131 121 114 110 108 108 105 101 96 90 87 83 78 77 68 60 53 47 50 57 51 35 15 12 11 11 12 1 100 97 85 70 63 69 75 57 44 36 27
150 138 122 115 123 127 124 116 109 106 107 105 108 114 107 101 93 86 77 64 57 51 46 56 40 19 17 15 15 12 9 46 61 81 91 79 61 56 63 50 37 34
140 127 118 117 117 115 113 112 108 111 119 117 110 108 110 112 95 85 81 71 61 51 39 54 45 28 21 21 22 22 19 74 70 65 60 68 78 66 55 47 37 26
119 118 115 117 120 119 115 109 121 127 122 106 97 93 85 82 84 86 83 78 67 54 48 38 47 37 25 29 32 30 26 38 56 77 73 61 52 54 56 56 32 22